Overall — Peninsula - Mini
Sunday 4 June 2023 · 56 finishers across every class · 3 laps for the winner
| Pos | No. | Rider | Class | Laps | Time | Behind | Int | Pace |
|---|---|---|---|---|---|---|---|---|
| 1 | #5A | WESTON, BODIE | SM 14-15 | 3 | 57:22 | — | 0:00 | 19:07 |
| 2 | #51A | SMITH, JAYTIN | SM 14-15 | 3 | 57:25 | +0:03 | 0:03 | 19:08 |
| 3 | #43B | SMITH, RYAN | SM 12-13 | 3 | 58:46 | +1:24 | 1:21 | 19:35 |
| 4 | #17A | POWERS, KARSON | SM 14-15 | 3 | 1:00:35 | +3:13 | 1:49 | 20:11 |
| 5 | #24A | CHRIMES, CHASE | SM 14-15 | 3 | 1:00:44 | +3:22 | 0:09 | 20:14 |
| 6 | #66A | LOWE, ALBERT | SM 14-15 | 3 | 1:00:45 | +3:23 | 0:01 | 20:15 |
| 7 | #99C | CASH, CARSON | MINI 12-13 | 3 | 1:00:59 | +3:37 | 0:14 | 20:19 |
| 8 | #42C | LACY, JACK | MINI 12-13 | 3 | 1:01:23 | +4:01 | 0:24 | 20:27 |
| 9 | #47B | HARRISON, EVAN | SM 12-13 | 3 | 1:01:25 | +4:03 | 0:02 | 20:28 |
| 10 | #45B | GREER, CALEB | SM 12-13 | 3 | 1:01:33 | +4:11 | 0:08 | 20:31 |
| 11 | #42A | SCHLICKENMEYER, SEAN | SM 14-15 | 3 | 1:01:48 | +4:26 | 0:15 | 20:36 |
| 12 | #25B | HERTZLER, NOAH | SM 12-13 | 3 | 1:02:16 | +4:54 | 0:28 | 20:45 |
| 13 | #44B | GEARHART, CADENCE | SM 12-13 | 3 | 1:02:37 | +5:15 | 0:21 | 20:52 |
| 14 | #29B | POFF, PEYTON | SM 12-13 | 3 | 1:03:08 | +5:46 | 0:31 | 21:02 |
| 15 | #19C | CAWLEY, MASON | MINI 12-13 | 3 | 1:04:12 | +6:50 | 1:04 | 21:24 |
| 16 | #96C | GREER, LOGAN | MINI 12-13 | 3 | 1:04:45 | +7:23 | 0:33 | 21:35 |
| 17 | #23B | JOHNSON, BRADY | SM 12-13 | 3 | 1:04:48 | +7:26 | 0:03 | 21:36 |
| 18 | #38C | MAZZOLA, BRENNAN | MINI 12-13 | 3 | 1:05:19 | +7:57 | 0:31 | 21:46 |
| 19 | #67A | BONANNO, ADIN | SM 14-15 | 3 | 1:05:59 | +8:37 | 0:40 | 21:59 |
| 20 | #13C | NEALY JR, IVAN | MINI 12-13 | 3 | 1:06:44 | +9:22 | 0:45 | 22:14 |
| 21 | #17C | WOOD, PARKER | MINI 12-13 | 3 | 1:06:48 | +9:26 | 0:04 | 22:16 |
| 22 | #12K | BURKHOLDER, BRADLEY | MINI 9-11K | 3 | 1:07:37 | +10:15 | 0:49 | 22:32 |
| 23 | #21K | WIGGINS, MADDIX | MINI 9-11K | 3 | 1:09:00 | +11:38 | 1:23 | 23:00 |
| 24 | #24D | OLEARY, NOLAN | MINI 9-11 | 3 | 1:09:04 | +11:42 | 0:04 | 23:01 |
| 25 | #20E | JACOBS, PEYTON | SM WOMEN | 3 | 1:10:24 | +13:02 | 1:20 | 23:28 |
| 26 | #4D | KERN, QUENTIN | MINI 9-11 | 3 | 1:10:56 | +13:34 | 0:32 | 23:38 |
| 27 | #22D | BAKER, COHEN | MINI 9-11 | 3 | 1:11:06 | +13:44 | 0:10 | 23:42 |
| 28 | #88D | KEATING, JAMES | MINI 9-11 | 3 | 1:11:39 | +14:17 | 0:33 | 23:53 |
| 29 | #5D | BAKKEN, DASH | MINI 9-11 | 3 | 1:11:39 | +14:17 | 0:00 | 23:53 |
| 30 | #50K | JOHNSON, LUCAS | MINI 9-11K | 3 | 1:11:44 | +14:22 | 0:05 | 23:54 |
| 31 | #85D | BUCHANAN, TUCKER | MINI 9-11 | 3 | 1:12:33 | +15:11 | 0:49 | 24:11 |
| 32 | #2E | HARDMAN, SAVANNAH | SM WOMEN | 3 | 1:13:12 | +15:50 | 0:39 | 24:24 |
| 33 | #30B | OLEARY, ASHTON | SM 12-13 | 3 | 1:13:53 | +16:31 | 0:41 | 24:37 |
| 34 | #42D | COLLINS, JAXON | MINI 9-11 | 3 | 1:14:05 | +16:43 | 0:12 | 24:41 |
| 35 | #35B | AUSTIN, BRAYDEN | SM 12-13 | 3 | 1:15:07 | +17:45 | 1:02 | 25:02 |
| 36 | #1K | DOMAN, HAYDEN | MINI 9-11K | 3 | 1:15:57 | +18:35 | 0:50 | 25:19 |
| 37 | #25K | TORRES, TRISTIN | MINI 9-11K | 3 | 1:16:04 | +18:42 | 0:07 | 25:21 |
| 38 | #12E | NEALY, ALLISON | SM WOMEN | 3 | 1:16:35 | +19:13 | 0:31 | 25:31 |
| 39 | #8E | PANCAKE, DELILAH | SM WOMEN | 3 | 1:19:42 | +22:20 | 3:07 | 26:34 |
| 40 | #10E | PANCAKE, LILLIAN | SM WOMEN | 3 | 1:20:25 | +23:03 | 0:43 | 26:48 |
| 41 | #89E | CLINEDINST, LIVIA | SM WOMEN | 3 | 1:22:25 | +25:03 | 2:00 | 27:28 |
| 42 | #13A | AL-AWAM, TORREN | SM 14-15 | 2 | 42:31 | 1 lap | 0:00 | 21:15 |
| 43 | #16A | CLINEDINST, LAIRD | SM 14-15 | 2 | 42:57 | 1 lap | 0:26 | 21:28 |
| 44 | #14C | GRAVELY, JOSIAH | MINI 12-13 | 2 | 44:49 | 1 lap | 1:52 | 22:24 |
| 45 | #26D | LILLY, WYATT | MINI 9-11 | 2 | 56:43 | 1 lap | 11:54 | 28:21 |
| 46 | #50C | CHIN, BRYCEN | MINI 12-13 | 2 | 57:12 | 1 lap | 0:29 | 28:36 |
| 47 | #52B | REYNOLDS, LUCAS | SM 12-13 | 2 | 59:09 | 1 lap | 1:57 | 29:34 |
| 48 | #11K | ADAMSON, CASSEL | MINI 9-11K | 2 | 1:01:01 | 1 lap | 1:52 | 30:30 |
| 49 | #58E | LOHR, CAROLINE | SM WOMEN | 2 | 1:03:40 | 1 lap | 2:39 | 31:50 |
| 50 | #48E | LANDRUM, KINLEY | SM WOMEN | 2 | 1:09:21 | 1 lap | 5:41 | 34:40 |
| 51 | #27G | SCHADE, BENJAMAS | TRL WOMEN | 2 | 1:12:52 | 1 lap | 3:31 | 36:26 |
| 52 | #65D | LILLY, RYDER | MINI 9-11 | 2 | 1:17:52 | 1 lap | 5:00 | 38:56 |
| 53 | #69K | LILLY, COLE | MINI 9-11K | 1 | 29:05 | 2 laps | 0:00 | 29:05 |
| 54 | #11D | MCKIVER, GRANT JR | MINI 9-11 | 1 | 35:36 | 2 laps | 6:31 | 35:36 |
| 55 | #11B | SENTERS, ZEKE | SM 12-13 | 1 | 42:43 | 2 laps | 7:07 | 42:43 |
| 56 | #39C | LEWIS, JACOB | MINI 12-13 | 1 | 1:27:04 | 2 laps | 44:21 | 1:27:04 |
Ranked the way the series ranks: most laps first, then least time. Behind is the deficit to the winner and is only shown where the lap count matches, because elapsed time says nothing across different lap counts — a rider a lap down shows the laps instead. Int is the gap to the rider immediately ahead.